Flag for Australia Weather past 2 weeks in Toowoomba, Queensland, Australia

Now
70 °F

Mild.


Feels Like: 70 °F
Forecast: 54 / 83 °F
Wind: 13 mph from Northeast

Location: Oakey Aerodrome

Current Time: Oct 23, 2014 at 10:33:20 PM

Latest Report: Oct 23, 2014 at 9:00 PM


Visibility: N/A

Pressure: 30.13 "Hg

Humidity: 57%

Dew point: 54 °F

Location of ToowoombaLocation

Historic Weather in Toowoomba — Graph

°F

Toowoomba temperature yesterday

Maximum temperature yesterday: 77 °F (at 4:00 PM)
Minimum temperature yesterday: 54 °F (at 4:00 AM)
Average temperature yesterday: 65 °F

Past Weeks' High & Low Weather Summary

 TemperatureHumidityPressure
High86 °F (Oct 20, 3:00 PM)90% (Oct 23, 4:00 AM)30.32 "Hg (Oct 23, 4:00 AM)
Low38 °F (Oct 15, 4:00 AM)11% (Oct 17, 3:00 PM)29.78 "Hg (Oct 14, 3:00 AM)
Average66 °F56%30.09 "Hg
* Reported Oct 8 9:00 PM — Oct 23 9:00 PM, Toowoomba, Weather by CustomWeather, © 2014

Note: Actual official high and low records may vary slightly from our data, if they occured in-between our weather recording intervals... More about our weather records

Advertising

Toowoomba weather history for previous 24 hours

 ConditionsComfort  
Time TempWeatherWind HumidityBarometerVisibility
9:00 PM
Oct 23
70 °FMild.13 mph57%30.13 "HgN/A
7:00 PM74 °FMild.15 mph45%30.07 "HgN/A
6:00 PM81 °FOvercast.6 mph26%30.02 "HgN/A
4:00 PM84 °FPleasantly warm.6 mph25%30.00 "HgN/A
3:00 PM84 °FPassing clouds.9 mph25%30.00 "HgN/A
1:00 PM83 °FPleasantly warm.5 mph31%30.06 "HgN/A
12:00 PM79 °FPleasantly warm.5 mph34%30.11 "HgN/A
10:00 AM72 °FMild.6 mph43%30.16 "HgN/A
9:00 AM69 °FMild.7 mph49%30.18 "HgN/A
7:00 AM61 °FCool.8 mph73%30.19 "HgN/A
6:00 AM54 °FCool.6 mph88%30.17 "HgN/A
4:00 AM51 °FCool.7 mph90%30.15 "HgN/A
3:00 AM52 °FCool.8 mph87%30.15 "HgN/A
1:00 AM56 °FCool.9 mph83%30.16 "HgN/A
12:00 AM57 °FCool.10 mph80%30.18 "HgN/A
10:00 PM
Oct 22
60 °FCool.13 mph72%30.19 "HgN/A
Weather by CustomWeather, © 2014

See weather overviewHow to use our weather pages